Flag for India Weather past 2 weeks in Faridkot, Punjab, India

57 °F


Feels Like: 57 °F
Forecast: 54 / 77 °F
Wind: No wind

Location: Lahore Airport

Current Time: Dec 1, 2015 at 6:38:27 AM

Latest Report: Dec 1, 2015 at 4:55 AM

Visibility: 2 mi

Pressure: 30.01 "Hg

Humidity: 82%

Dew point: 52 °F

Location of FaridkotLocation

Historic Weather in Faridkot — Graph


Faridkot temperature yesterday

Maximum temperature yesterday: 75 °F (at 3:25 PM)
Minimum temperature yesterday: 59 °F (at 6:00 AM)
Average temperature yesterday: 65 °F

Past Weeks' High & Low Weather Summary

High82 °F (Nov 19, 3:25 PM)100% (Dec 1, 12:25 AM)30.18 "Hg (Dec 1, 12:25 AM)
Low50 °F (Nov 28, 7:25 AM)23% (Nov 19, 3:25 PM)29.89 "Hg (Nov 17, 3:55 PM)
Average66 °F58%30.02 "Hg
* Reported Nov 16 5:25 AM — Dec 1 4:55 AM, Faridkot, Weather by CustomWeather, © 2015

Note: Actual official high and low records may vary slightly from our data, if they occured in-between our weather recording intervals... More about our weather records


Faridkot weather history for previous 24 hours

Time TempWeatherWind HumidityBarometerVisibility
4:55 AM
Tue, Dec 1
57 °FFog.No wind82%30.01 "Hg2 mi
3:55 AM57 °FFog.No wind82%30.01 "Hg2 mi
3:25 AM57 °FFog.No wind82%30.01 "Hg2 mi
2:55 AM59 °FFog.No wind82%30.01 "Hg2 mi
2:25 AM59 °FClear.No wind82%30.01 "Hg2 mi
1:25 AM61 °FClear.No wind77%30.01 "Hg2 mi
12:55 AM61 °FClear.No wind77%30.01 "Hg2 mi
12:25 AM61 °FClear.No wind100%30.01 "Hg2 mi
11:55 PM
Mon, Nov 30
63 °FClear.No wind77%30.04 "Hg2 mi
11:25 PM63 °FClear.No wind77%30.04 "Hg2 mi
10:55 PM63 °FClear.No wind77%30.04 "Hg2 mi
10:25 PM64 °FClear.No wind68%30.04 "Hg2 mi
9:25 PM64 °FPassing clouds.No wind73%30.04 "Hg2 mi
7:25 PM68 °FPassing clouds.3 mph64%30.04 "Hg1 mi
5:25 PM73 °FHaze.No wind50%30.01 "Hg1 mi
4:55 PM73 °FHaze.No wind44%30.04 "Hg1 mi
4:25 PM73 °FHaze.No wind44%30.04 "Hg1 mi
3:55 PM75 °FHaze.No wind41%30.04 "Hg1 mi
3:25 PM75 °FScattered clouds.3 mph41%30.04 "Hg1 mi
2:55 PM73 °FScattered clouds.3 mph41%30.04 "Hg1 mi
2:25 PM73 °FScattered clouds.3 mph41%30.07 "Hg1 mi
1:55 PM72 °FScattered clouds.5 mph44%30.09 "Hg1 mi
1:25 PM72 °FScattered clouds.5 mph44%30.09 "Hg1 mi
12:25 PM70 °FScattered clouds.5 mph53%30.12 "Hg1 mi
11:25 AM68 °FScattered clouds.No wind56%30.15 "Hg1 mi
10:55 AM66 °FScattered clouds.5 mph68%30.18 "Hg1 mi
10:25 AM64 °FScattered clouds.No wind73%30.18 "Hg1 mi
9:55 AM63 °FScattered clouds.No wind77%30.18 "Hg1 mi
8:55 AM61 °FFog.No wind83%30.15 "Hg1 mi
8:30 AM61 °FFog.No wind83%30.15 "Hg1 mi
8:00 AM61 °FFog.No wind83%30.12 "Hg1 mi
7:30 AM61 °FFog.No wind83%30.12 "Hg1 mi
6:30 AM59 °FFog.No wind82%30.09 "Hg1 mi
6:00 AM59 °FFog.No wind88%30.09 "Hg1 mi
Weather by CustomWeather, © 2015

See weather overviewHow to use our weather pages